359  
SXUS52 KTAE 251118  
OSOTAE  
OSOTAE  
NORTH FLORIDA/SOUTH ALABAMA/SOUTHWEST GEORGIA WEATHER ROUNDUP  
NATIONAL WEATHER SERVICE TALLAHASSEE FLORIDA  
700 AM EDT SAT MAR 25 2017  
 
NOTE: "FAIR" INDICATES FEW OR NO CLOUDS BELOW 12,000 FEET WITH NO  
SIGNIFICANT WEATHER AND/OR OBSTRUCTIONS TO VISIBILITY.  
 
!FLZ017-115-028-034-025-251200   
..NORTH FLORIDA
 
 
 
CITY SKY/WX TMP DP RH WIND PRES REMARKS  
TALLAHASSEE CLOUDY 58 55 90 E3 30.22R  
APALACHICOLA CLOUDY 68 63 84 SE12 30.18R  
PERRY PTCLDY 60 55 85 CALM 30.23R  
CROSS CITY MOCLDY 50 48 93 CALM 30.22R  
JACKSONVILLE MOCLDY 57 56 96 CALM 30.23R  

 
 
!FLZ112-006-005-002-011-251200   
..FLORIDA PANHANDLE
 
 
 
CITY SKY/WX TMP DP RH WIND PRES REMARKS  
MARIANNA MOCLDY 62 56 80 CALM 30.21R  
BONIFAY FAIR 57 56 96 E3 30.22R  
PANAMA CITY NW FAIR 57 55 93 NE6 30.19R  
TYNDALL AFB MOCLDY 63 60 88 E5 30.19R  
TYND DRONE APT FAIR 62 60 94 E8 30.19R  
DE FUNIAK SPR FAIR 58 55 87 SE6 30.20R  
EGLIN AFB MOCLDY 64 58 82 E5 30.17R  
DESTIN CLOUDY 69 66 90 SE12 30.17R  
HURLBURT PTCLDY 67 62 85 SE10 30.15R  
CRESTVIEW MOCLDY 53 51 93 CALM 30.20R  
PENSACOLA CLOUDY 68 62 81 SE12 30.15R  

 
 
!ALZ063-066-251200   
..SOUTH ALABAMA
 
 
 
CITY SKY/WX TMP DP RH WIND PRES REMARKS  
DOTHAN MOCLDY 59 55 87 E6 30.24R  
OZARK CAIRNS CLEAR 59 54 82 E3 30.21R  
FT RUCKER HELI PTCLDY 57 54 89 CALM 30.21R  
RUCKER HELI 3 FAIR 58 54 85 SE3 30.21R  
RUCKER HELI 2 MOCLDY 60 54 80 CALM 30.21R  
FLORALA APT PTCLDY 54 51 90 CALM 30.21R  
ANDALUSIA PTCLDY 58 53 84 E3 30.19R  
TROY CLEAR 58 54 86 CALM 30.22R  
EUFALA FAIR 59 52 77 SE3 30.23R  
MOBILE CLOUDY 66 62 87 SE8 30.14S  

 
 
!GAZ120>161-251200   
..SOUTHWEST AND SOUTH CENTRAL GEORGIA
 
 
 
CITY SKY/WX TMP DP RH WIND PRES REMARKS  
THOMASVILLE FAIR 55 55 100 CALM 30.25R  
BAINBRIDGE CLOUDY 59 54 82 E3 30.23R  
MOODY AFB CLOUDY 54 52 92 CALM 30.23R  
VALDOSTA CLOUDY 52 52 100 CALM 30.24R  
MOULTRIE CLOUDY 55 54 94 CALM 30.26R  
BLAKELY CLOUDY 59 54 82 CALM 30.25R  
ALBANY CLOUDY 58 54 86 E5 30.27R  
TIFTON FAIR 54 54 100 CALM 30.25R  
FITZGERALD FAIR 55 55 99 CALM 30.28R  
CORDELE FAIR 57 55 94 CALM 30.28R  
AMERICUS FAIR 55 55 100 CALM 30.28R  
HOMERVILLE FAIR 57 57 100 CALM 30.25R  

 
 
!GMZ750-755-770-775-251200   
..COASTAL AND BUOY OBS
 
 
 
STATION/POSITION TIME TEMP WIND PRES VSBY WAVE  
AIR SEA DIR/SP/G HT/PER  
(UTC) (F) (DEG/KT/KT) (MB) (MI) (FT/S)  
KEATON BEACH 1100 58 80/ 7/ 7 1022.7R  
CEDAR KEY 1100 65 100/ 9/ 10 1023.1R  
C TOWER 1100 67 140/ 19/ 21 1022.5R  
APALACHICOLA BUO 1050 69 69 140/ 16/ 17 1021.3R 4/ 5  
PANAMA CITY BUOY 1050 71 71 1020.5R 6/ 6  
MOBILE BUOY 1100 72 73 140/ 16/ 17 1020.3  
ORANGE BCH AL BU 1050 69 69 140/ 14/ 16 1020.3R 4/ 7  

 
 
 
CLICK HERE TO GO TO PREVIOUS BULLETINS.

The Nexlab FL Page
The Nexlab GA Page
The Nexlab AL Page Main Text Page